STARLINK-34979 (65254 NORAD) Tracking and Keplerian Element Data

This shows tracking and keplerian element data for the satellite.

Feedback or suggestion? Click here.




ElementValue
Catalog65254
NameSTARLINK-34979
Epoch Orbit1982
Epoch Day354.0013478
Epoch Year2025
RAAN34.3548
Inclination97.6042
Eccentricity0.0001469
Argument of Perigee39.3881
Mean Anonmoly320.7452
Mean Motion15.05652299
Decay Rate4.01E-05
L11 65254U 25179V 25354.00134780 .00004010 00000+0 28191-3 0 9996
L22 65254 97.6042 34.3548 0001469 39.3881 320.7452 15.05652299 19828



Live tracking and technical data element details for STARLINK-34979 (NORAD 65254). STARLINK-34979 can be tracked NOW for your location showing map with azimuth and elevation plus other details from your city location.







IsCatalogInMostPopularTable: catalog: 65254, numindb: 4
Update: records affected: 1



GetName: 65254 STARLINK-34979

Hit Count: updated at: Sun, 08 Feb 2026 08:35:05 GMT